Home > Weather > St. Petersburg > Past weeks

Flag for USA Past Weather in St. Petersburg, Florida, USA — Yesterday and Last 2 Weeks

Now
81 °F

Light rain. Cloudy.


Feels Like: 86 °F
Forecast: 80 / 89 °F
Wind: 6 mph from North

Location: Whitted Airport

Current Time: Jun 25, 2016 at 1:58:33 PM

Latest Report: Jun 25, 2016 at 12:53 PM


Visibility: 3 mi

Pressure: 30.09 "Hg

Humidity: 79%

Dew Point: 74 °F

Location of St. PetersburgLocation

Past Weather in St. Petersburg — Graph

°F

St. Petersburg Temperature Yesterday

Maximum temperature yesterday: 90 °F (at 2:53 PM)
Minimum temperature yesterday: 82 °F (at 12:53 AM)
Average temperature yesterday: 85 °F

High & Low Weather Summary for the Past Weeks

 TemperatureHumidityPressure
High90 °F (Jun 22, 3:53 PM)97% (Jun 10, 6:53 PM)30.20 "Hg (Jun 10, 6:53 PM)
Low73 °F (Jun 18, 3:57 AM)45% (Jun 17, 3:53 PM)29.88 "Hg (Jun 17, 6:53 PM)
Average82 °F75%30.04 "Hg
* Reported Jun 10 12:02 PM — Jun 25 12:04 PM, St. Petersburg, Weather by CustomWeather, © 2016

Note: Actual official high and low records may vary slightly from our data, if they occured in-between our weather recording intervals... More about our weather records

Advertising

St. Petersburg Weather History for the Previous 24 Hours

Scroll right to see more
 ConditionsComfort  
Time TempWeatherWind HumidityBarometerVisibility
12:04 PM
Sat, Jun 25
80 °FStrong thunderstorms. Mostly cloudy.23 mph85%30.10 "Hg1 mi
12:00 PM81 °FThunderstorms. Cloudy.15 mph82%30.11 "Hg2 mi
10:53 AM85 °FScattered clouds.7 mph77%30.10 "Hg10 mi
9:53 AM83 °FSunny.6 mph79%30.09 "Hg10 mi
8:53 AM82 °FSunny.5 mph82%30.09 "Hg10 mi
7:53 AM81 °FSunny.3 mph82%30.07 "Hg10 mi
6:53 AM80 °FPassing clouds.6 mph85%30.06 "Hg10 mi
5:53 AM81 °FClear.9 mph79%30.03 "Hg10 mi
4:53 AM81 °FClear.8 mph82%30.02 "Hg10 mi
3:53 AM81 °FPassing clouds.8 mph82%30.03 "Hg10 mi
2:53 AM81 °FOvercast.13 mph82%30.03 "Hg10 mi
1:53 AM83 °FPassing clouds.5 mph79%30.05 "Hg10 mi
12:53 AM82 °FMostly cloudy.3 mph82%30.06 "Hg10 mi
11:53 PM
Fri, Jun 24
84 °FOvercast.3 mph74%30.07 "Hg10 mi
10:53 PM84 °FPassing clouds.3 mph74%30.06 "Hg10 mi
9:53 PM84 °FPassing clouds.No wind72%30.05 "Hg10 mi
8:53 PM85 °FSunny.8 mph68%30.02 "Hg10 mi
7:53 PM87 °FPassing clouds.6 mph65%30.02 "Hg10 mi
6:53 PM87 °FSunny.10 mph61%30.01 "Hg10 mi
5:53 PM87 °FSunny.12 mph61%30.02 "Hg10 mi
4:53 PM89 °FPartly sunny.10 mph59%30.03 "Hg10 mi
3:53 PM90 °FPartly sunny.7 mph57%30.04 "Hg10 mi
2:53 PM90 °FScattered clouds.6 mph57%30.06 "Hg10 mi
1:53 PM89 °FSunny.6 mph55%30.07 "Hg10 mi
Weather by CustomWeather, © 2016

See weather overviewHow to use our weather pages